Content
SEND FEEDBACK

Daily
Averages
Monthly
Summary
Uruguay

RADIAL CONCHILLAS, URUGUAY


Home > South America > Uruguay
Elevation: 4 feet     Latitude: 34 11S     Longitude: 058 14W

WEATHER
 
SELECT A DAY
Number of Records: 170,398;   Date Range: 6/30/96 - 11/27/14
 
SHARE

PRINT THIS DATA

[ ← Previous Day ]
WEATHER ALMANAC - FEBRUARY 13, 2013
[ Next Day → ]
[ °C ]   °F
Weather ElementAverageHighLow
Temperature80.1 °F86 °F (3:00 pm)75 °F (9:00 am)
Dewpoint66 °F75.2 °F (3:00 pm)60.8 °F (7:00 am)
Humidity60.9 %70 % (3:00 pm)44 % (6:00 pm)
Barometer29.76 in29.83 in (11:00 pm)29.68 in (12:00 am)
Wind Speed8.6 mph13.8 mph (4:00 pm)
Wind Gust26.5 mph (7:00 am)
Weather ElementAverage
Visibility6.1 mi
Wind DirectionW (264.6 °)

Weather ElementTotal
Precipitation---
Cooling Degree Days15.5 (Base 65)
Growing Degree Days30.5 (Base 50)
Averaged from 28 records on February 13, 2013
WEATHER CONDITIONS BREAKOUT
WIND DIRECTION BREAKOUT
WEATHER BY HOUR - FEBRUARY 13, 2013
[ °C ]   °F
Local TimeTemperatureDewpointHumidityBarometerVisibilityWind DirectionWind SpeedGust SpeedPrecipitationEventsConditions
12:00 AM82.4 °F68.0 °F62 %29.68 inSouth (180°)3.5 mphClear
1:00 AM80.6 °F68.0 °F65 %29.68 inSSW (200°)9.2 mphClear
2:00 AM78.8 °F66.2 °F65 %29.68 inSSW (200°)5.8 mphClear
3:00 AM78.8 °F66.2 °F65 %29.71 inSSW (200°)4.6 mphClear
4:00 AM78.8 °F68.0 °F69 %29.71 in6.2 miSW (230°)5.8 mphScattered Clouds
5:00 AM78.8 °F68.0 °F69 %29.71 in6.2 miSSW (200°)4.6 mphMostly Cloudy
6:00 AM78.8 °F68.0 °F69 %29.74 in6.2 miNNW (340°)9.2 mphScattered Clouds
7:00 AM75.2 °F60.8 °F61 %29.77 in6.2 miNNW (340°)11.5 mph26.5 mphOvercast
8:00 AM75.2 °F64.4 °F69 %29.80 in6.2 miNNW (340°)9.2 mphMostly Cloudy
9:00 AM75.0 °F64.0 °F62 %29.81 in6.0 miNW (320°)5.8 mphPartly Cloudy
9:00 AM75.2 °F64.4 °F69 %29.80 inNW (320°)5.8 mphClear
10:00 AM77.0 °F66.2 °F69 %29.80 inNNW (340°)9.2 mphClear
11:00 AM82.4 °F62.6 °F51 %29.80 inCalmClear
12:00 PM80.6 °F68.0 °F65 %29.80 inNorth (360°)11.5 mphClear
12:00 PM81.0 °F68.0 °F56 %29.81 in6.0 miNorth11.5 mphScattered Clouds
1:00 PM80.6 °F68.0 °F65 %29.77 inNorth (360°)9.2 mphClear
2:00 PM82.4 °F66.2 °F58 %29.77 inNNW (340°)11.5 mphClear
3:00 PM86.0 °F75.2 °F70 %29.77 inNW (320°)12.7 mphClear
4:00 PM86.0 °F62.6 °F45 %29.77 inWNW (290°)13.8 mphClear
5:00 PM84.2 °F62.6 °F48 %29.74 inWNW (290°)13.8 mphClear
6:00 PM82.4 °F64.4 °F54 %29.74 inWNW (290°)13.8 mphClear
6:00 PM82.0 °F64.0 °F44 %29.76 in6.0 miWNW (290°)13.8 mphMostly Cloudy
7:00 PM82.4 °F64.4 °F54 %29.74 inWNW (290°)9.2 mphClear
8:00 PM80.6 °F64.4 °F58 %29.77 inWNW (290°)9.2 mphClear
9:00 PM80.0 °F66.0 °F53 %29.81 in6.0 miWNW (290°)5.8 mphClear
9:00 PM80.6 °F66.2 °F61 %29.80 inWNW (290°)5.8 mphClear
10:00 PM78.8 °F66.2 °F65 %29.80 inWSW (250°)8.1 mphClear
11:00 PM78.8 °F66.2 °F65 %29.83 inWSW (250°)5.8 mphClear
Hourly data recorded from SABE, located miles away from Radial Conchillas, Uruguay







STORIES FROM OUR PARTNERS